CYGFM05

Last updated on Sun Oct 06 2024 00:02:17 GMT+0000 (Coordinated Universal Time)

1 41884U 16078A 24279.52621177 .00028030 00000+0 91979-3 0 9992 2 41884 34.9635 320.9165 0011655 132.3503 227.8202 15.30588686432976
UTC large
Height (km)
Speed (km/s)
/
Latitude / Longitude
Inclination (degrees)
Orbital Period (minutes)
Azimuth
Elevation
Range (km)
Doppler Factor

Next 0 passes for location: London (51.5072 / 0.1276)

Sorry there are no passes over London.